{"data":{"norad_id":47505,"intl_designator":"2021-006CW","name":"HAWK-2A","alt_names":[],"object_type":"PAYLOAD","status":"ACTIVE","operator":null,"country":"US","launch_date":"2021-01-24","launch_site_code":"AFETR","launch_vehicle":null,"mission":null,"orbit_class":"UNKNOWN","rcs_meters":null,"size_class":null,"mass_kg":null,"dimensions":null,"purposes":["tech_demo"],"wikipedia_slug":null,"has_3d_model":false,"image_url":null,"decayed_at":null,"tle_current":{"epoch":"2026-09-19T20:39:05.108256Z","epoch_age_seconds":69962,"freshness":"FRESH","line1":"1 47505U 21006CW  26262.86047579  .00004077  00000+0  11961-3 0  9992","line2":"2 47505  97.2235 306.0386 0005220 211.1638 148.9297 15.35715139314028","mean_motion":15.35715139,"eccentricity":0.000522,"inclination_deg":97.2235,"raan_deg":306.0386,"arg_perigee_deg":211.1638,"mean_anomaly_deg":148.9297,"bstar":0.00011961,"rev_number":31402,"period_min":93.767389760687,"perigee_km":455.22828011002,"apogee_km":462.36603937279,"semimajor_km":6836.9341597414,"source":"CELESTRAK","updated_at":"2026-09-20T09:00:47.448360Z"}}}